Back to catalog

STARLINK-3134

AliveCommunicationsVLEO
NORAD 49434·PAYLOAD·🇺🇸 United States

Launched Nov 13, 2021 from Cape Canaveral Space Force Station

Loading…

Next Passes (next 24 hours)

TLE

FreshSource: CelesTrak SupGP

Epoch: Sep 14, 2026, 14:06 UTC

1 49434C 21104AC  26257.58798611  .00015301  00000+0  88120-3 0  2577
2 49434  53.2136 100.0765 0002591 106.0665 116.8163 15.11913250    11

Track STARLINK-3134 in real time with AllMySat

Download on the App Store